Year,Month,Day,Hour,Minute,Value (Times are PST for temperature in C)
2017,09,17,00,00,16.60
2017,09,17,00,01,16.60
2017,09,17,00,02,16.60
2017,09,17,00,03,16.60
2017,09,17,00,04,16.60
2017,09,17,00,05,16.60
2017,09,17,00,06,16.60
2017,09,17,00,07,16.60
2017,09,17,00,08,16.60
2017,09,17,00,09,16.60
2017,09,17,00,10,16.60
2017,09,17,00,11,16.60
2017,09,17,00,12,16.70
2017,09,17,00,13,16.70
2017,09,17,00,14,16.70
2017,09,17,00,15,16.70
2017,09,17,00,16,16.70
2017,09,17,00,17,16.60
2017,09,17,00,18,16.60
2017,09,17,00,19,16.60
2017,09,17,00,20,16.50
2017,09,17,00,21,16.50
2017,09,17,00,22,16.40
2017,09,17,00,23,16.40
2017,09,17,00,24,16.40
2017,09,17,00,25,16.30
2017,09,17,00,26,16.30
2017,09,17,00,27,16.30
2017,09,17,00,28,16.20
2017,09,17,00,29,16.20
2017,09,17,00,30,16.10
2017,09,17,00,31,16.00
2017,09,17,00,32,16.00
2017,09,17,00,33,15.90
2017,09,17,00,34,15.90
2017,09,17,00,35,15.80
2017,09,17,00,36,15.80
2017,09,17,00,37,15.80
2017,09,17,00,38,15.80
2017,09,17,00,39,15.80
2017,09,17,00,40,15.70
2017,09,17,00,41,15.70
2017,09,17,00,42,15.70
2017,09,17,00,43,15.70
2017,09,17,00,44,15.70
2017,09,17,00,45,15.70
2017,09,17,00,46,15.60
2017,09,17,00,47,15.60
2017,09,17,00,48,15.60
2017,09,17,00,49,15.60
2017,09,17,00,50,15.60
2017,09,17,00,51,15.60
2017,09,17,00,52,15.60
2017,09,17,00,53,15.60
2017,09,17,00,54,15.60
2017,09,17,00,55,15.60
2017,09,17,00,56,15.60
2017,09,17,00,57,15.60
2017,09,17,00,58,15.60
2017,09,17,00,59,15.50
2017,09,17,01,00,15.50
2017,09,17,01,01,15.50
2017,09,17,01,02,15.50
2017,09,17,01,03,15.50
2017,09,17,01,04,15.40
2017,09,17,01,05,15.40
2017,09,17,01,06,15.40
2017,09,17,01,07,15.40
2017,09,17,01,08,15.40
2017,09,17,01,09,15.40
2017,09,17,01,10,15.40
2017,09,17,01,11,15.30
2017,09,17,01,12,15.30
2017,09,17,01,13,15.30
2017,09,17,01,14,15.30
2017,09,17,01,15,15.30
2017,09,17,01,16,15.30
2017,09,17,01,17,15.30
2017,09,17,01,18,15.30
2017,09,17,01,19,15.30
2017,09,17,01,20,15.30
2017,09,17,01,21,15.30
2017,09,17,01,22,15.40
2017,09,17,01,23,15.40
2017,09,17,01,24,15.40
2017,09,17,01,25,15.40
2017,09,17,01,26,15.40
2017,09,17,01,27,15.40
2017,09,17,01,28,15.40
2017,09,17,01,29,15.40
2017,09,17,01,30,15.40
2017,09,17,01,31,15.40
2017,09,17,01,32,15.30
2017,09,17,01,33,15.30
2017,09,17,01,34,15.30
2017,09,17,01,35,15.30
2017,09,17,01,36,15.30
2017,09,17,01,37,15.30
2017,09,17,01,38,15.30
2017,09,17,01,39,15.30
2017,09,17,01,40,15.30
2017,09,17,01,41,15.30
2017,09,17,01,42,15.30
2017,09,17,01,43,15.30
2017,09,17,01,44,15.30
2017,09,17,01,45,15.30
2017,09,17,01,46,15.30
2017,09,17,01,47,15.30
2017,09,17,01,48,15.30
2017,09,17,01,49,15.30
2017,09,17,01,50,15.30
2017,09,17,01,51,15.30
2017,09,17,01,52,15.30
2017,09,17,01,53,15.30
2017,09,17,01,54,15.30
2017,09,17,01,55,15.30
2017,09,17,01,56,15.30
2017,09,17,01,57,15.30
2017,09,17,01,58,15.30
2017,09,17,01,59,15.20
2017,09,17,02,00,15.20
2017,09,17,02,01,15.20
2017,09,17,02,02,15.20
2017,09,17,02,03,15.20
2017,09,17,02,04,15.10
2017,09,17,02,05,15.10
2017,09,17,02,06,15.10
2017,09,17,02,07,15.10
2017,09,17,02,08,15.00
2017,09,17,02,09,15.00
2017,09,17,02,10,15.00
2017,09,17,02,11,14.90
2017,09,17,02,12,14.90
2017,09,17,02,13,14.90
2017,09,17,02,14,14.90
2017,09,17,02,15,14.90
2017,09,17,02,16,14.80
2017,09,17,02,17,14.80
2017,09,17,02,18,14.80
2017,09,17,02,19,14.80
2017,09,17,02,20,14.70
2017,09,17,02,21,14.70
2017,09,17,02,22,14.70
2017,09,17,02,23,14.70
2017,09,17,02,24,14.70
2017,09,17,02,25,14.70
2017,09,17,02,26,14.70
2017,09,17,02,27,14.70
2017,09,17,02,28,14.70
2017,09,17,02,29,14.70
2017,09,17,02,30,14.70
2017,09,17,02,31,14.70
2017,09,17,02,32,14.80
2017,09,17,02,33,14.80
2017,09,17,02,34,14.80
2017,09,17,02,35,14.80
2017,09,17,02,36,14.80
2017,09,17,02,37,14.90
2017,09,17,02,38,14.90
2017,09,17,02,39,14.90
2017,09,17,02,40,14.90
2017,09,17,02,41,14.90
2017,09,17,02,42,14.90
2017,09,17,02,43,14.90
2017,09,17,02,44,14.90
2017,09,17,02,45,14.90
2017,09,17,02,46,14.90
2017,09,17,02,47,14.90
2017,09,17,02,48,14.90
2017,09,17,02,49,14.90
2017,09,17,02,50,14.90
2017,09,17,02,51,14.90
2017,09,17,02,52,14.90
2017,09,17,02,53,14.90
2017,09,17,02,54,14.90
2017,09,17,02,55,14.90
2017,09,17,02,56,14.90
2017,09,17,02,57,14.80
2017,09,17,02,58,14.80
2017,09,17,02,59,14.80
2017,09,17,03,00,14.80
2017,09,17,03,01,14.80
2017,09,17,03,02,14.80
2017,09,17,03,03,14.80
2017,09,17,03,04,14.70
2017,09,17,03,05,14.70
2017,09,17,03,06,14.70
2017,09,17,03,07,14.60
2017,09,17,03,08,14.60
2017,09,17,03,09,14.60
2017,09,17,03,10,14.60
2017,09,17,03,11,14.60
2017,09,17,03,12,14.60
2017,09,17,03,13,14.60
2017,09,17,03,14,14.50
2017,09,17,03,15,14.50
2017,09,17,03,16,14.50
2017,09,17,03,17,14.40
2017,09,17,03,18,14.40
2017,09,17,03,19,14.40
2017,09,17,03,20,14.40
2017,09,17,03,21,14.40
2017,09,17,03,22,14.40
2017,09,17,03,23,14.40
2017,09,17,03,24,14.40
2017,09,17,03,25,14.40
2017,09,17,03,26,14.30
2017,09,17,03,27,14.30
2017,09,17,03,28,14.30
2017,09,17,03,29,14.20
2017,09,17,03,30,14.20
2017,09,17,03,31,14.20
2017,09,17,03,32,14.20
2017,09,17,03,33,14.20
2017,09,17,03,34,14.20
2017,09,17,03,35,14.20
2017,09,17,03,36,14.20
2017,09,17,03,37,14.20
2017,09,17,03,38,14.20
2017,09,17,03,39,14.20
2017,09,17,03,40,14.20
2017,09,17,03,41,14.20
2017,09,17,03,42,14.20
2017,09,17,03,43,14.20
2017,09,17,03,44,14.20
2017,09,17,03,45,14.20
2017,09,17,03,46,14.20
2017,09,17,03,47,14.20
2017,09,17,03,48,14.20
2017,09,17,03,49,14.20
2017,09,17,03,50,14.30
2017,09,17,03,51,14.30
2017,09,17,03,52,14.30
2017,09,17,03,53,14.30
2017,09,17,03,54,14.30
2017,09,17,03,55,14.30
2017,09,17,03,56,14.30
2017,09,17,03,57,14.30
2017,09,17,03,58,14.40
2017,09,17,03,59,14.40
2017,09,17,04,00,14.40
2017,09,17,04,01,14.40
2017,09,17,04,02,14.40
2017,09,17,04,03,14.40
2017,09,17,04,04,14.40
2017,09,17,04,05,14.40
2017,09,17,04,06,14.40
2017,09,17,04,07,14.50
2017,09,17,04,08,14.50
2017,09,17,04,09,14.50
2017,09,17,04,10,14.50
2017,09,17,04,11,14.60
2017,09,17,04,12,14.60
2017,09,17,04,13,14.60
2017,09,17,04,14,14.60
2017,09,17,04,15,14.60
2017,09,17,04,16,14.60
2017,09,17,04,17,14.60
2017,09,17,04,18,14.60
2017,09,17,04,19,14.60
2017,09,17,04,20,14.60
2017,09,17,04,21,14.60
2017,09,17,04,22,14.60
2017,09,17,04,23,14.50
2017,09,17,04,24,14.50
2017,09,17,04,25,14.50
2017,09,17,04,26,14.40
2017,09,17,04,27,14.40
2017,09,17,04,28,14.40
2017,09,17,04,29,14.40
2017,09,17,04,30,14.30
2017,09,17,04,31,14.30
2017,09,17,04,32,14.30
2017,09,17,04,33,14.30
2017,09,17,04,34,14.30
2017,09,17,04,35,14.20
2017,09,17,04,36,14.20
2017,09,17,04,37,14.20
2017,09,17,04,38,14.20
2017,09,17,04,39,14.20
2017,09,17,04,40,14.10
2017,09,17,04,41,14.10
2017,09,17,04,42,14.10
2017,09,17,04,43,14.00
2017,09,17,04,44,14.00
2017,09,17,04,45,13.90
2017,09,17,04,46,13.90
2017,09,17,04,47,13.90
2017,09,17,04,48,13.90
2017,09,17,04,49,13.80
2017,09,17,04,50,13.80
2017,09,17,04,51,13.80
2017,09,17,04,52,13.70
2017,09,17,04,53,13.70
2017,09,17,04,54,13.70
2017,09,17,04,55,13.70
2017,09,17,04,56,13.60
2017,09,17,04,57,13.60
2017,09,17,04,58,13.60
2017,09,17,04,59,13.50
2017,09,17,05,00,13.50
2017,09,17,05,01,13.50
2017,09,17,05,02,13.50
2017,09,17,05,03,13.50
2017,09,17,05,04,13.40
2017,09,17,05,05,13.40
2017,09,17,05,06,13.40
2017,09,17,05,07,13.40
2017,09,17,05,08,13.40
2017,09,17,05,09,13.40
2017,09,17,05,10,13.40
2017,09,17,05,11,13.40
2017,09,17,05,12,13.40
2017,09,17,05,13,13.40
2017,09,17,05,14,13.40
2017,09,17,05,15,13.40
2017,09,17,05,16,13.40
2017,09,17,05,17,13.40
2017,09,17,05,18,13.40
2017,09,17,05,19,13.40
2017,09,17,05,20,13.40
2017,09,17,05,21,13.40
2017,09,17,05,22,13.40
2017,09,17,05,23,13.40
2017,09,17,05,24,13.50
2017,09,17,05,25,13.50
2017,09,17,05,26,13.60
2017,09,17,05,27,13.60
2017,09,17,05,28,13.70
2017,09,17,05,29,13.70
2017,09,17,05,30,13.80
2017,09,17,05,31,13.80
2017,09,17,05,32,13.80
2017,09,17,05,33,13.90
2017,09,17,05,34,13.90
2017,09,17,05,35,14.00
2017,09,17,05,36,14.00
2017,09,17,05,37,14.10
2017,09,17,05,38,14.10
2017,09,17,05,39,14.20
2017,09,17,05,40,14.20
2017,09,17,05,41,14.20
2017,09,17,05,42,14.20
2017,09,17,05,43,14.20
2017,09,17,05,44,14.20
2017,09,17,05,45,14.10
2017,09,17,05,46,14.10
2017,09,17,05,47,14.10
2017,09,17,05,48,14.00
2017,09,17,05,49,13.90
2017,09,17,05,50,13.90
2017,09,17,05,51,13.90
2017,09,17,05,52,13.90
2017,09,17,05,53,13.80
2017,09,17,05,54,13.80
2017,09,17,05,55,13.80
2017,09,17,05,56,13.80
2017,09,17,05,57,13.80
2017,09,17,05,58,13.80
2017,09,17,05,59,13.80
2017,09,17,06,00,13.80
2017,09,17,06,01,13.80
2017,09,17,06,02,13.80
2017,09,17,06,03,13.80
2017,09,17,06,04,13.80
2017,09,17,06,05,13.80
2017,09,17,06,06,13.80
2017,09,17,06,07,13.80
2017,09,17,06,08,13.80
2017,09,17,06,09,13.80
2017,09,17,06,10,13.80
2017,09,17,06,11,13.80
2017,09,17,06,12,13.80
2017,09,17,06,13,13.70
2017,09,17,06,14,13.80
2017,09,17,06,15,13.80
2017,09,17,06,16,13.80
2017,09,17,06,17,13.80
2017,09,17,06,18,13.80
2017,09,17,06,19,13.80
2017,09,17,06,20,13.80
2017,09,17,06,21,13.80
2017,09,17,06,22,13.80
2017,09,17,06,23,13.80
2017,09,17,06,24,13.80
2017,09,17,06,25,13.80
2017,09,17,06,26,13.80
2017,09,17,06,27,13.80
2017,09,17,06,28,13.80
2017,09,17,06,29,13.80
2017,09,17,06,30,13.80
2017,09,17,06,31,13.80
2017,09,17,06,32,13.80
2017,09,17,06,33,13.80
2017,09,17,06,34,13.80
2017,09,17,06,35,13.80
2017,09,17,06,36,13.70
2017,09,17,06,37,13.70
2017,09,17,06,38,13.70
2017,09,17,06,39,13.70
2017,09,17,06,40,13.70
2017,09,17,06,41,13.70
2017,09,17,06,42,13.60
2017,09,17,06,43,13.60
2017,09,17,06,44,13.60
2017,09,17,06,45,13.60
2017,09,17,06,46,13.60
2017,09,17,06,47,13.60
2017,09,17,06,48,13.60
2017,09,17,06,49,13.60
2017,09,17,06,50,13.60
2017,09,17,06,51,13.60
2017,09,17,06,52,13.60
2017,09,17,06,53,13.60
2017,09,17,06,54,13.60
2017,09,17,06,55,13.50
2017,09,17,06,56,13.50
2017,09,17,06,57,13.50
2017,09,17,06,58,13.50
2017,09,17,06,59,13.40
2017,09,17,07,00,13.40
2017,09,17,07,01,13.40
2017,09,17,07,02,13.40
2017,09,17,07,03,13.40
2017,09,17,07,04,13.40
2017,09,17,07,05,13.40
2017,09,17,07,06,13.40
2017,09,17,07,07,13.40
2017,09,17,07,08,13.40
2017,09,17,07,09,13.40
2017,09,17,07,10,13.50
2017,09,17,07,11,13.50
2017,09,17,07,12,13.50
2017,09,17,07,13,13.50
2017,09,17,07,14,13.50
2017,09,17,07,15,13.50
2017,09,17,07,16,13.50
2017,09,17,07,17,13.50
2017,09,17,07,18,13.60
2017,09,17,07,19,13.60
2017,09,17,07,20,13.60
2017,09,17,07,21,13.60
2017,09,17,07,22,13.60
2017,09,17,07,23,13.60
2017,09,17,07,24,13.60
2017,09,17,07,25,13.60
2017,09,17,07,26,13.60
2017,09,17,07,27,13.60
2017,09,17,07,28,13.60
2017,09,17,07,29,13.60
2017,09,17,07,30,13.60
2017,09,17,07,31,13.60
2017,09,17,07,32,13.60
2017,09,17,07,33,13.60
2017,09,17,07,34,13.60
2017,09,17,07,35,13.60
2017,09,17,07,36,13.60
2017,09,17,07,37,13.70
2017,09,17,07,38,13.70
2017,09,17,07,39,13.70
2017,09,17,07,40,13.70
2017,09,17,07,41,13.70
2017,09,17,07,42,13.80
2017,09,17,07,43,13.80
2017,09,17,07,44,13.80
2017,09,17,07,45,13.80
2017,09,17,07,46,13.80
2017,09,17,07,47,13.80
2017,09,17,07,48,13.90
2017,09,17,07,49,13.90
2017,09,17,07,50,13.90
2017,09,17,07,51,13.90
2017,09,17,07,52,14.00
2017,09,17,07,53,14.00
2017,09,17,07,54,14.00
2017,09,17,07,55,14.10
2017,09,17,07,56,14.10
2017,09,17,07,57,14.10
2017,09,17,07,58,14.10
2017,09,17,07,59,14.20
2017,09,17,08,00,14.20
2017,09,17,08,01,14.20
2017,09,17,08,02,14.20
2017,09,17,08,03,14.30
2017,09,17,08,04,14.30
2017,09,17,08,05,14.30
2017,09,17,08,06,14.30
2017,09,17,08,07,14.30
2017,09,17,08,08,14.40
2017,09,17,08,09,14.40
2017,09,17,08,10,14.40
2017,09,17,08,11,14.40
2017,09,17,08,12,14.40
2017,09,17,08,13,14.50
2017,09,17,08,14,14.50
2017,09,17,08,15,14.50
2017,09,17,08,16,14.50
2017,09,17,08,17,14.50
2017,09,17,08,18,14.60
2017,09,17,08,19,14.60
2017,09,17,08,20,14.60
2017,09,17,08,21,14.60
2017,09,17,08,22,14.70
2017,09,17,08,23,14.70
2017,09,17,08,24,14.70
2017,09,17,08,25,14.70
2017,09,17,08,26,14.80
2017,09,17,08,27,14.80
2017,09,17,08,28,14.80
2017,09,17,08,29,14.80
2017,09,17,08,30,14.80
2017,09,17,08,31,14.80
2017,09,17,08,32,14.80
2017,09,17,08,33,14.90
2017,09,17,08,34,14.90
2017,09,17,08,35,14.90
2017,09,17,08,36,14.90
2017,09,17,08,37,14.90
2017,09,17,08,38,14.90
2017,09,17,08,39,14.90
2017,09,17,08,40,14.90
2017,09,17,08,41,14.90
2017,09,17,08,42,14.90
2017,09,17,08,43,14.80
2017,09,17,08,44,14.80
2017,09,17,08,45,14.70
2017,09,17,08,46,14.60
2017,09,17,08,47,14.50
2017,09,17,08,48,14.50
2017,09,17,08,49,14.50
2017,09,17,08,50,14.40
2017,09,17,08,51,14.40
2017,09,17,08,52,14.40
2017,09,17,08,53,14.40
2017,09,17,08,54,14.40
2017,09,17,08,55,14.40
2017,09,17,08,56,14.40
2017,09,17,08,57,14.40
2017,09,17,08,58,14.50
2017,09,17,08,59,14.50
2017,09,17,09,00,14.50
2017,09,17,09,01,14.60
2017,09,17,09,02,14.60
2017,09,17,09,03,14.70
2017,09,17,09,04,14.70
2017,09,17,09,05,14.80
2017,09,17,09,06,14.80
2017,09,17,09,07,14.80
2017,09,17,09,08,14.80
2017,09,17,09,09,14.80
2017,09,17,09,10,14.80
2017,09,17,09,11,14.80
2017,09,17,09,12,14.80
2017,09,17,09,13,14.80
2017,09,17,09,14,14.80
2017,09,17,09,15,14.80
2017,09,17,09,16,14.90
2017,09,17,09,17,14.90
2017,09,17,09,18,14.90
2017,09,17,09,19,15.00
2017,09,17,09,20,15.00
2017,09,17,09,21,15.10
2017,09,17,09,22,15.10
2017,09,17,09,23,15.20
2017,09,17,09,24,15.20
2017,09,17,09,25,15.20
2017,09,17,09,26,15.30
2017,09,17,09,27,15.30
2017,09,17,09,28,15.40
2017,09,17,09,29,15.40
2017,09,17,09,30,15.40
2017,09,17,09,31,15.50
2017,09,17,09,32,15.50
2017,09,17,09,33,15.50
2017,09,17,09,34,15.60
2017,09,17,09,35,15.60
2017,09,17,09,36,15.60
2017,09,17,09,37,15.60
2017,09,17,09,38,15.70
2017,09,17,09,39,15.80
2017,09,17,09,40,15.80
2017,09,17,09,41,15.80
2017,09,17,09,42,15.80
2017,09,17,09,43,15.80
2017,09,17,09,44,15.80
2017,09,17,09,45,15.80
2017,09,17,09,46,15.90
2017,09,17,09,47,15.90
2017,09,17,09,48,15.90
2017,09,17,09,49,16.00
2017,09,17,09,50,16.00
2017,09,17,09,51,16.00
2017,09,17,09,52,16.00
2017,09,17,09,53,16.00
2017,09,17,09,54,16.00
2017,09,17,09,55,16.10
2017,09,17,09,56,16.10
2017,09,17,09,57,16.10
2017,09,17,09,58,16.10
2017,09,17,09,59,16.10
2017,09,17,10,00,16.10
2017,09,17,10,01,16.10
2017,09,17,10,02,16.10
2017,09,17,10,03,16.10
2017,09,17,10,04,16.10
2017,09,17,10,05,16.10
2017,09,17,10,06,16.10
2017,09,17,10,07,16.10
2017,09,17,10,08,16.10
2017,09,17,10,09,16.10
2017,09,17,10,10,16.10
2017,09,17,10,11,16.10
2017,09,17,10,12,16.10
2017,09,17,10,13,16.10
2017,09,17,10,14,16.10
2017,09,17,10,15,16.10
2017,09,17,10,16,16.10
2017,09,17,10,17,16.10
2017,09,17,10,18,16.10
2017,09,17,10,19,16.10
2017,09,17,10,20,16.10
2017,09,17,10,21,16.10
2017,09,17,10,22,16.10
2017,09,17,10,23,16.10
2017,09,17,10,24,16.10
2017,09,17,10,25,16.20
2017,09,17,10,26,16.20
2017,09,17,10,27,16.20
2017,09,17,10,28,16.20
2017,09,17,10,29,16.20
2017,09,17,10,30,16.20
2017,09,17,10,31,16.20
2017,09,17,10,32,16.20
2017,09,17,10,33,16.20
2017,09,17,10,34,16.20
2017,09,17,10,35,16.20
2017,09,17,10,36,16.20
2017,09,17,10,37,16.20
2017,09,17,10,38,16.20
2017,09,17,10,39,16.20
2017,09,17,10,40,16.20
2017,09,17,10,41,16.20
2017,09,17,10,42,16.20
2017,09,17,10,43,16.20
2017,09,17,10,44,16.10
2017,09,17,10,45,16.10
2017,09,17,10,46,16.10
2017,09,17,10,47,16.10
2017,09,17,10,48,16.10
2017,09,17,10,49,16.10
2017,09,17,10,50,16.10
2017,09,17,10,51,16.10
2017,09,17,10,52,16.00
2017,09,17,10,53,16.00
2017,09,17,10,54,16.00
2017,09,17,10,55,15.90
2017,09,17,10,56,15.90
2017,09,17,10,57,15.90
2017,09,17,10,58,15.80
2017,09,17,10,59,15.80
2017,09,17,11,00,15.80
2017,09,17,11,01,15.70
2017,09,17,11,02,15.70
2017,09,17,11,03,15.70
2017,09,17,11,04,15.60
2017,09,17,11,05,15.50
2017,09,17,11,06,15.50
2017,09,17,11,07,15.40
2017,09,17,11,08,15.30
2017,09,17,11,09,15.10
2017,09,17,11,10,15.00
2017,09,17,11,11,14.80
2017,09,17,11,12,14.70
2017,09,17,11,13,14.60
2017,09,17,11,14,14.50
2017,09,17,11,15,14.40
2017,09,17,11,16,14.40
2017,09,17,11,17,14.30
2017,09,17,11,18,14.30
2017,09,17,11,19,14.30
2017,09,17,11,20,14.30
2017,09,17,11,21,14.30
2017,09,17,11,22,14.30
2017,09,17,11,23,14.30
2017,09,17,11,24,14.30
2017,09,17,11,25,14.30
2017,09,17,11,26,14.20
2017,09,17,11,27,14.20
2017,09,17,11,28,14.20
2017,09,17,11,29,14.20
2017,09,17,11,30,14.20
2017,09,17,11,31,14.20
2017,09,17,11,32,14.20
2017,09,17,11,33,14.20
2017,09,17,11,34,14.10
2017,09,17,11,35,14.10
2017,09,17,11,36,14.00
2017,09,17,11,37,14.00
2017,09,17,11,38,13.90
2017,09,17,11,39,13.80
2017,09,17,11,40,13.70
2017,09,17,11,41,13.70
2017,09,17,11,42,13.60
2017,09,17,11,43,13.60
2017,09,17,11,44,13.50
2017,09,17,11,45,13.40
2017,09,17,11,46,13.40
2017,09,17,11,47,13.30
2017,09,17,11,48,13.30
2017,09,17,11,49,13.20
2017,09,17,11,50,13.20
2017,09,17,11,51,13.20
2017,09,17,11,52,13.10
2017,09,17,11,53,13.10
2017,09,17,11,54,13.10
2017,09,17,11,55,13.00
2017,09,17,11,56,13.00
2017,09,17,11,57,13.00
2017,09,17,11,58,13.00
2017,09,17,11,59,13.00
2017,09,17,12,00,13.00
2017,09,17,12,01,13.00
2017,09,17,12,02,13.10
2017,09,17,12,03,13.00
2017,09,17,12,04,13.00
2017,09,17,12,05,13.00
2017,09,17,12,06,13.00
2017,09,17,12,07,13.00
2017,09,17,12,08,13.00
2017,09,17,12,09,12.90
2017,09,17,12,10,12.90
2017,09,17,12,11,12.90
2017,09,17,12,12,12.90
2017,09,17,12,13,12.80
2017,09,17,12,14,12.80
2017,09,17,12,15,12.80
2017,09,17,12,16,12.80
2017,09,17,12,17,12.70
2017,09,17,12,18,12.70
2017,09,17,12,19,12.70
2017,09,17,12,20,12.70
2017,09,17,12,21,12.70
2017,09,17,12,22,12.70
2017,09,17,12,23,12.70
2017,09,17,12,24,12.70
2017,09,17,12,25,12.70
2017,09,17,12,26,12.70
2017,09,17,12,27,12.70
2017,09,17,12,28,12.70
2017,09,17,12,29,12.70
2017,09,17,12,30,12.70
2017,09,17,12,31,12.60
2017,09,17,12,32,12.60
2017,09,17,12,33,12.60
2017,09,17,12,34,12.60
2017,09,17,12,35,12.60
2017,09,17,12,36,12.60
2017,09,17,12,37,12.60
2017,09,17,12,38,12.60
2017,09,17,12,39,12.60
2017,09,17,12,40,12.70
2017,09,17,12,41,12.70
2017,09,17,12,42,12.70
2017,09,17,12,43,12.80
2017,09,17,12,44,12.80
2017,09,17,12,45,12.80
2017,09,17,12,46,12.70
2017,09,17,12,47,12.70
2017,09,17,12,48,12.70
2017,09,17,12,49,12.70
2017,09,17,12,50,12.70
2017,09,17,12,51,12.70
2017,09,17,12,52,12.60
2017,09,17,12,53,12.60
2017,09,17,12,54,12.60
2017,09,17,12,55,12.50
2017,09,17,12,56,12.50
2017,09,17,12,57,12.50
2017,09,17,12,58,12.40
2017,09,17,12,59,12.40
2017,09,17,13,00,12.40
2017,09,17,13,01,12.40
2017,09,17,13,02,12.50
2017,09,17,13,03,12.50
2017,09,17,13,04,12.50
2017,09,17,13,05,12.50
2017,09,17,13,06,12.60
2017,09,17,13,07,12.60
2017,09,17,13,08,12.60
2017,09,17,13,09,12.60
2017,09,17,13,10,12.60
2017,09,17,13,11,12.70
2017,09,17,13,12,12.70
2017,09,17,13,13,12.70
2017,09,17,13,14,12.70
2017,09,17,13,15,12.70
2017,09,17,13,16,12.60
2017,09,17,13,17,12.60
2017,09,17,13,18,12.60
2017,09,17,13,19,12.50
2017,09,17,13,20,12.50
2017,09,17,13,21,12.40
2017,09,17,13,22,12.40
2017,09,17,13,23,12.40
2017,09,17,13,24,12.30
2017,09,17,13,25,12.30
2017,09,17,13,26,12.30
2017,09,17,13,27,12.30
2017,09,17,13,28,12.30
2017,09,17,13,29,12.30
2017,09,17,13,30,12.30
2017,09,17,13,31,12.30
2017,09,17,13,32,12.30
2017,09,17,13,33,12.40
2017,09,17,13,34,12.40
2017,09,17,13,35,12.40
2017,09,17,13,36,12.40
2017,09,17,13,37,12.40
2017,09,17,13,38,12.40
2017,09,17,13,39,12.40
2017,09,17,13,40,12.40
2017,09,17,13,41,12.40
2017,09,17,13,42,12.40
2017,09,17,13,43,12.40
2017,09,17,13,44,12.40
2017,09,17,13,45,12.50
2017,09,17,13,46,12.50
2017,09,17,13,47,12.50
2017,09,17,13,48,12.60
2017,09,17,13,49,12.60
2017,09,17,13,50,12.60
2017,09,17,13,51,12.60
2017,09,17,13,52,12.70
2017,09,17,13,53,12.70
2017,09,17,13,54,12.70
2017,09,17,13,55,12.70
2017,09,17,13,56,12.70
2017,09,17,13,57,12.80
2017,09,17,13,58,12.80
2017,09,17,13,59,12.80
2017,09,17,14,00,12.80
2017,09,17,14,01,12.80
2017,09,17,14,02,12.80
2017,09,17,14,03,12.90
2017,09,17,14,04,12.90
2017,09,17,14,05,12.90
2017,09,17,14,06,12.90
2017,09,17,14,07,12.90
2017,09,17,14,08,13.00
2017,09,17,14,09,13.00
2017,09,17,14,10,13.10
2017,09,17,14,11,13.10
2017,09,17,14,12,13.10
2017,09,17,14,13,13.10
2017,09,17,14,14,13.20
2017,09,17,14,15,13.20
2017,09,17,14,16,13.20
2017,09,17,14,17,13.20
2017,09,17,14,18,13.10
2017,09,17,14,19,13.10
2017,09,17,14,20,13.10
2017,09,17,14,21,13.10
2017,09,17,14,22,13.10
2017,09,17,14,23,13.10
2017,09,17,14,24,13.10
2017,09,17,14,25,13.10
2017,09,17,14,26,13.10
2017,09,17,14,27,13.10
2017,09,17,14,28,13.10
2017,09,17,14,29,13.10
2017,09,17,14,30,13.10
2017,09,17,14,31,13.10
2017,09,17,14,32,13.10
2017,09,17,14,33,13.10
2017,09,17,14,34,13.00
2017,09,17,14,35,12.90
2017,09,17,14,36,12.80
2017,09,17,14,37,12.80
2017,09,17,14,38,12.70
2017,09,17,14,39,12.70
2017,09,17,14,40,12.80
2017,09,17,14,41,12.80
2017,09,17,14,42,12.80
2017,09,17,14,43,12.80
2017,09,17,14,44,12.80
2017,09,17,14,45,12.80
2017,09,17,14,46,12.80
2017,09,17,14,47,12.80
2017,09,17,14,48,12.80
2017,09,17,14,49,12.80
2017,09,17,14,50,12.80
2017,09,17,14,51,12.80
2017,09,17,14,52,12.90
2017,09,17,14,53,12.90
2017,09,17,14,54,12.90
2017,09,17,14,55,12.90
2017,09,17,14,56,13.00
2017,09,17,14,57,13.00
2017,09,17,14,58,13.00
2017,09,17,14,59,13.10
2017,09,17,15,00,13.10
2017,09,17,15,01,13.10
2017,09,17,15,02,13.10
2017,09,17,15,03,13.10
2017,09,17,15,04,13.20
2017,09,17,15,05,13.20
2017,09,17,15,06,13.20
2017,09,17,15,07,13.30
2017,09,17,15,08,13.30
2017,09,17,15,09,13.30
2017,09,17,15,10,13.30
2017,09,17,15,11,13.30
2017,09,17,15,12,13.30
2017,09,17,15,13,13.30
2017,09,17,15,14,13.40
2017,09,17,15,15,13.40
2017,09,17,15,16,13.40
2017,09,17,15,17,13.40
2017,09,17,15,18,13.30
2017,09,17,15,19,13.30
2017,09,17,15,20,13.20
2017,09,17,15,21,13.20
2017,09,17,15,22,13.20
2017,09,17,15,23,13.10
2017,09,17,15,24,13.10
2017,09,17,15,25,13.20
2017,09,17,15,26,13.20
2017,09,17,15,27,13.20
2017,09,17,15,28,13.20
2017,09,17,15,29,13.20
2017,09,17,15,30,13.30
2017,09,17,15,31,13.20
2017,09,17,15,32,13.10
2017,09,17,15,33,13.10
2017,09,17,15,34,13.10
2017,09,17,15,35,13.10
2017,09,17,15,36,13.10
2017,09,17,15,37,13.10
2017,09,17,15,38,13.10
2017,09,17,15,39,13.00
2017,09,17,15,40,12.90
2017,09,17,15,41,12.90
2017,09,17,15,42,12.80
2017,09,17,15,43,12.80
2017,09,17,15,44,12.70
2017,09,17,15,45,12.60
2017,09,17,15,46,12.60
2017,09,17,15,47,12.60
2017,09,17,15,48,12.50
2017,09,17,15,49,12.50
2017,09,17,15,50,12.50
2017,09,17,15,51,12.40
2017,09,17,15,52,12.40
2017,09,17,15,53,12.40
2017,09,17,15,54,12.40
2017,09,17,15,55,12.40
2017,09,17,15,56,12.40
2017,09,17,15,57,12.40
2017,09,17,15,58,12.40
2017,09,17,15,59,12.40
2017,09,17,16,00,12.40
2017,09,17,16,01,12.40
2017,09,17,16,02,12.40
2017,09,17,16,03,12.40
2017,09,17,16,04,12.40
2017,09,17,16,05,12.40
2017,09,17,16,06,12.40
2017,09,17,16,07,12.40
2017,09,17,16,08,12.40
2017,09,17,16,09,12.50
2017,09,17,16,10,12.50
2017,09,17,16,11,12.50
2017,09,17,16,12,12.60
2017,09,17,16,13,12.60
2017,09,17,16,14,12.60
2017,09,17,16,15,12.60
2017,09,17,16,16,12.50
2017,09,17,16,17,12.40
2017,09,17,16,18,12.40
2017,09,17,16,19,12.30
2017,09,17,16,20,12.30
2017,09,17,16,21,12.20
2017,09,17,16,22,12.20
2017,09,17,16,23,12.10
2017,09,17,16,24,12.10
2017,09,17,16,25,12.10
2017,09,17,16,26,12.00
2017,09,17,16,27,12.00
2017,09,17,16,28,11.90
2017,09,17,16,29,11.90
2017,09,17,16,30,11.90
2017,09,17,16,31,11.90
2017,09,17,16,32,11.90
2017,09,17,16,33,11.90
2017,09,17,16,34,11.90
2017,09,17,16,35,11.90
2017,09,17,16,36,11.90
2017,09,17,16,37,11.80
2017,09,17,16,38,11.80
2017,09,17,16,39,11.90
2017,09,17,16,40,11.90
2017,09,17,16,41,11.80
2017,09,17,16,42,11.80
2017,09,17,16,43,11.70
2017,09,17,16,44,11.70
2017,09,17,16,45,11.70
2017,09,17,16,46,11.60
2017,09,17,16,47,11.60
2017,09,17,16,48,11.60
2017,09,17,16,49,11.60
2017,09,17,16,50,11.50
2017,09,17,16,51,11.40
2017,09,17,16,52,11.50
2017,09,17,16,53,11.50
2017,09,17,16,54,11.50
2017,09,17,16,55,11.50
2017,09,17,16,56,11.50
2017,09,17,16,57,11.60
2017,09,17,16,58,11.60
2017,09,17,16,59,11.50
2017,09,17,17,00,11.50
2017,09,17,17,01,11.40
2017,09,17,17,02,11.40
2017,09,17,17,03,11.40
2017,09,17,17,04,11.40
2017,09,17,17,05,11.40
2017,09,17,17,06,11.40
2017,09,17,17,07,11.40
2017,09,17,17,08,11.40
2017,09,17,17,09,11.40
2017,09,17,17,10,11.50
2017,09,17,17,11,11.50
2017,09,17,17,12,11.50
2017,09,17,17,13,11.50
2017,09,17,17,14,11.50
2017,09,17,17,15,11.40
2017,09,17,17,16,11.40
2017,09,17,17,17,11.40
2017,09,17,17,18,11.40
2017,09,17,17,19,11.30